Regional Weather Roundup
Issued by NWS

Home | Current Version | Previous Version | Graphics & Text | Print | Product List | Glossary Off
Versions: 1 2 3 4 5 6 7 8 9 10 11 12 13 14 15 16 17 18 19 20 21 22 23 24 25 26 27 28 29 30 31 32 33 34 35 36 37 38 39 40 41 42 43 44 45 46 47 48 49 50

000
ASUS43 KMKX 011821
RWRWI

WISCONSIN REGIONAL WEATHER ROUNDUP
NATIONAL WEATHER SERVICE MILWAUKEE/SULLIVAN WI
100 PM CDT TUE SEP 01 2015

NOTE: "FAIR" INDICATES FEW OR NO CLOUDS BELOW 12,000 FEET WITH NO
SIGNIFICANT WEATHER AND/OR OBSTRUCTIONS TO VISIBILITY.

WIZ001-002-006>008-014>016-023>028-011900-
NORTHWEST WISCONSIN

CITY           SKY/WX    TMP DP  RH WIND       PRES   REMARKS
SUPERIOR ARPT  PTSUNNY   79  72  79 W6        29.88F HX  81
6HR MIN TEMP:  70; 6HR MAX TEMP:  79;

ASHLAND        CLOUDY    79  74  84 W5        29.91S HX  82
6HR MIN TEMP:  71; 6HR MAX TEMP:  79; 6HR PCP:  0.05;

HAYWARD        PTSUNNY   81  69  67 SW8       29.93F HX  84
6HR MIN TEMP:  70; 6HR MAX TEMP:  81;

SIREN          PTSUNNY   82  70  68 SW3       29.91F HX  85
6HR MIN TEMP:  70; 6HR MAX TEMP:  82;

CUMBERLAND     PTSUNNY   79  68  69 S7        29.93F HX  81
RICE LAKE      PTSUNNY   81  69  67 S8        29.94F HX  84
6HR MIN TEMP:  69; 6HR MAX TEMP:  81;

CHETEK         PTSUNNY  N/A N/A N/A S5        29.93F
LADYSMITH      PTSUNNY   82  69  66 SW7       29.95F HX  85
6HR MIN TEMP:  70; 6HR MAX TEMP:  82;

EAU CLAIRE     PTSUNNY   84  68  58 S6        29.91F HX  87
6HR MIN TEMP:  67; 6HR MAX TEMP:  84;

MENOMONIE      MOSUNNY   85  70  61 CALM      29.91F HX  89
6HR MIN TEMP:  67; 6HR MAX TEMP:  85;

NEW RICHMOND   MOSUNNY   84  69  60 S7        29.91F HX  88
6HR MIN TEMP:  68; 6HR MAX TEMP:  84; 6HR PCP:  0.06;

OSCEOLA        PTSUNNY   82  69  64 S6        29.94S HX  85
6HR MIN TEMP:  69; 6HR MAX TEMP:  82; 6HR PCP:  0.03;

$$

WIZ003>005-009-010-017-018-011900-
NORTH CENTRAL WISCONSIN

CITY           SKY/WX    TMP DP  RH WIND       PRES   REMARKS
MANITOWISH WTR PTSUNNY   80  66  64 SW12G17   29.96S HX  82
6HR MIN TEMP:  69; 6HR MAX TEMP:  80;

ARBOR VITAE    PTSUNNY   79  69  69 SW8       29.96S HX  82
6HR MIN TEMP:  72; 6HR MAX TEMP:  80;

WOODRUFF       PTSUNNY   79  69  69 SW8       29.96S HX  82
6HR MIN TEMP:  72; 6HR MAX TEMP:  80;

RHINELANDER    MOSUNNY   81  68  64 SW10      29.98F HX  84
6HR MIN TEMP:  70; 6HR MAX TEMP:  81;

EAGLE RIVER    PTSUNNY   80  65  59 SW13      29.96S HX  81
6HR MIN TEMP:  69; 6HR MAX TEMP:  81;

LAND O LAKES   MOSUNNY   81  65  58 SW10G17   29.97S HX  83
6HR MIN TEMP:  69; 6HR MAX TEMP:  82;

PHILLIPS       CLOUDY    80  69  69 SW9       29.95F HX  82
6HR MIN TEMP:  69; 6HR MAX TEMP:  79;

TOMAHAWK       MOSUNNY   79  68  68 SW5       29.97F HX  82
6HR MIN TEMP:  66; 6HR MAX TEMP:  79;

MEDFORD        MOSUNNY   80  69  69 SW12      29.97F HX  83
6HR MIN TEMP:  63; 6HR MAX TEMP:  80;

MERRILL        MOSUNNY   82  69  65 W9        29.97F HX  85
6HR MIN TEMP:  63; 6HR MAX TEMP:  82;

$$

WIZ029-030-035-036-043>047-011900-
CENTRAL WISCONSIN

CITY           SKY/WX    TMP DP  RH WIND       PRES   REMARKS
WAUSAU         MOSUNNY   83  68  60 SW9       29.95F HX  86
6HR MIN TEMP:  65; 6HR MAX TEMP:  84;

MOSINEE        NOT AVBL
MARSHFIELD     MOSUNNY   85  67  54 SW9       29.96F HX  87
6HR MIN TEMP:  65; 6HR MAX TEMP:  86;

STEVENS POINT  MOSUNNY   83  65  54 SW12      29.97S HX  85
6HR MIN TEMP:  65; 6HR MAX TEMP:  83;

WAUPACA        MOSUNNY   87  69  53 SW8       29.96F HX  91
6HR MIN TEMP:  65; 6HR MAX TEMP:  89;

WAUTOMA        MOSUNNY   87  70  57 SW9       29.97F HX  92
6HR MIN TEMP:  62; 6HR MAX TEMP:  89;

WISC RAPIDS    MOSUNNY   86  67  52 SW8       29.97F HX  89
6HR MIN TEMP:  67; 6HR MAX TEMP:  86;

CAMP DOUGLAS   MOSUNNY   86  75  70 S7        29.95F HX  95
$$

WIZ011>013-019>022-031-037>040-048>050-011900-
NORTHEAST WISCONSIN

CITY           SKY/WX    TMP DP  RH WIND       PRES   REMARKS
ANTIGO         PTSUNNY   82  68  63 SW10      29.97F HX  84
SHAWANO        MOSUNNY   87  70  56 S9        29.95F HX  92
6HR MIN TEMP:  67; 6HR MAX TEMP:  87;

OCONTO         MOSUNNY   84  77  78 S7        29.94S HX  94
6HR MIN TEMP:  60; 6HR MAX TEMP:  85;

STURGEON BAY   SUNNY     82  73  74 S8        29.97F HX  88
6HR MIN TEMP:  66; 6HR MAX TEMP:  84;

GREEN BAY      MOSUNNY   85  74  69 S8        29.96F HX  92
6HR MIN TEMP:  67; 6HR MAX TEMP:  86;

MANITOWOC      SUNNY     79  71  76 MISG      29.97F HX  82
6HR MIN TEMP:  55; 6HR MAX TEMP:  79;

APPLETON       PTSUNNY   84  70  61 S13       29.96F HX  88
CLINTONVILLE   PTSUNNY   86  68  54 S12       29.94F HX  89
OSHKOSH        MOSUNNY   85  71  63 SW9       29.97F HX  90
6HR MIN TEMP:  69; 6HR MAX TEMP:  86;

$$

WIZ032>034-041-042-053>061-011900-
SOUTHWEST WISCONSIN

CITY           SKY/WX    TMP DP  RH WIND       PRES   REMARKS
LA CROSSE      MOSUNNY   87  73  62 S12       29.92F HX  94
6HR MIN TEMP:  69; 6HR MAX TEMP:  87;

SPARTA         SUNNY     87  68  52 S10       29.95S HX  90
6HR MIN TEMP:  63; 6HR MAX TEMP:  87;

VIROQUA          N/A     84  72  67 S6        29.98S HX  90
6HR MIN TEMP:  69; 6HR MAX TEMP:  84;

BOSCOBEL       SUNNY     89  73  59 VRB5      29.96F HX  97
PRAIRIE DU CHI SUNNY     85  70  60 S6        29.95F HX  90
6HR MIN TEMP:  68; 6HR MAX TEMP:  85;

PLATTEVILLE    SUNNY     84  74  72 S12       30.00S HX  90
6HR MIN TEMP:  68; 6HR MAX TEMP:  84;

$$

WIZ056-057-062-063-064-067-068-011900-
SOUTH CENTRAL WISCONSIN

CITY           SKY/WX    TMP DP  RH WIND       PRES   REMARKS
REEDSBURG      MOSUNNY   86  73  64 S7        29.97S HX  93
6HR MIN TEMP:  70; 6HR MAX TEMP:  86;

BARABOO/DELLS  MOSUNNY   88  66  48 SW8       29.97F HX  90
6HR MIN TEMP:  69; 6HR MAX TEMP:  88;

LONE ROCK      MOSUNNY   87  72  60 S10       29.97F HX  93
6HR MIN TEMP:  66; 6HR MAX TEMP:  87;

MINERAL POINT  SUNNY     86  73  66 S10       30.01S HX  93
MADISON        MOSUNNY   87  70  56 S8        29.99S HX  92
6HR MIN TEMP:  70; 6HR MAX TEMP:  87;

MIDDLETON      SUNNY    N/A N/A N/A S12G17    30.00S
WATERTOWN      MOSUNNY   87  69  56 SW12      30.00S HX  91
6HR MIN TEMP:  68; 6HR MAX TEMP:  87;

MONROE         SUNNY     86  70  58 S12       30.01F HX  90
JANESVILLE     MOSUNNY   90  70  51 S14       30.00F HX  95
$$

WIZ051-052-058>065-066-070>072-011900-
SOUTHEAST WISCONSIN

CITY           SKY/WX    TMP DP  RH WIND       PRES   REMARKS
MILWAUKEE      MOSUNNY   89  68  49 S12G21    30.00F HX  93
6HR MIN TEMP:  70; 6HR MAX TEMP:  89;

WAUKESHA       SUNNY     84  66  54 SW5       30.03S HX  86
MILWAUKEE/TIMM MOSUNNY   88  64  45 SW8       30.01S HX  89
RACINE         SUNNY     85  72  65 S10       30.03S HX  91
6HR MIN TEMP:  70; 6HR MAX TEMP:  87;

BURLINGTON     SUNNY     85  71  61 S8        30.02S HX  90
6HR MIN TEMP:  60; 6HR MAX TEMP:  85;

KENOSHA        MOSUNNY   88  73  61 SW10G17   30.02F HX  95
6HR MIN TEMP:  70; 6HR MAX TEMP:  88;

FOND DU LAC    SUNNY     86  73  65 SW8       29.98F HX  93
6HR MIN TEMP:  69; 6HR MAX TEMP:  86;

SHEBOYGAN      MOSUNNY   85  70  60 SW13      29.98F HX  89
6HR MIN TEMP:  63; 6HR MAX TEMP:  86;

WEST BEND      SUNNY     86  66  51 SW10      30.00S HX  88
JUNEAU         SUNNY     84  69  61 S7        30.01F HX  88
6HR MIN TEMP:  66; 6HR MAX TEMP:  84; 6HR PCP:  0.03;

$$

LSZ147-162-011900-
LAKE SUPERIOR

STATION/POSITION TIME  TEMP    WIND        PRES    WAVE
                       AIR SEA DIR/SP/G            HT/PER
                 (UTC) (F)     (DEG/KT/KT) (MB)    (FT/S)
W MID LAKE BUOY  1750   59 55  220/  6/  6 1012.1F   0
DEVILS ISLAND    1800   66     240/  7/  9 1012.3R
PORT WING        1700   70     260/  5/  6 1012.5F
SAXON HARBOR     1800           CALM  / 21 1011.9F
$$

LMZ867-665-643>646-011900-
LAKE MICHIGAN

STATION/POSITION TIME  TEMP    WIND        PRES    WAVE
                       AIR SEA DIR/SP/G            HT/PER
                 (UTC) (F)     (DEG/KT/KT) (MB)    (FT/S)
CHAMBERS ISLAND  1700   78     180/  5/  9 1014.6F
S GREEN BAY BUOY 1800   72 66  200/  6/  6 1015.6F
N MID LAKE BUOY  1750   67 65  200/ 10/ 12 1014.5F   1/ 3


USA.gov is the U.S. government's official web portal to all federal, state and local government web resources and services.